TeikyoSat 4
1 49396U 21102B   25309.05800766  .00002412  00000-0  15889-3 0  9991
2 49396  97.3946 342.0690 0012021 351.8071   8.2960 15.08374999218928
Z-Sat
1 49399U 21102E   25309.35651566  .00004870  00000-0  25695-3 0  9995
2 49399  97.3634 346.4274 0016082 311.6167  48.3688 15.15896457219505
KOSEN 1
1 49402U 21102H   25309.05995980  .00008433  00000-0  36385-3 0  9995
2 49402  97.3531 350.7474 0013287 279.6237  80.3498 15.22700352219861
HO-113
1 50466U 21131B   25309.29526830  .00000715  00000-0  23593-3 0  9991
2 50466  98.5070  37.9049 0004971  60.5294 299.6391 14.41030621202860
SNUGLITE 2
1 52899U 22065F   25309.13691575  .00001417  00000-0  28160-3 0  9997
2 52899  98.1902  89.8929 0007674  15.9415 344.2028 14.63668932178218
UmKA 1 (RS40S)
1 57172U 23091G   25309.22980214  .00008188  00000-0  41199-3 0  9996
2 57172  97.5401   3.8664 0013942 173.4533 186.6885 15.17399263130004
CubeBel-2 (EU11S)
1 57175U 23091K   25309.21368261  .00011997  00000-0  51708-3 0  9999
2 57175  97.5399   6.0198 0011403 176.0931 184.0396 15.22664429130140
ENSO
1 58470U 23185J   25309.47284560  .01525317  17289-2  15298-2 0  9998
2 58470  97.3407  32.2446 0006998 278.6561  81.3930 16.11501469108382
SONATE-2
1 59112U 24043Q   25309.18591136  .00027993  00000-0  64915-3 0  9992
2 59112  97.5316  84.1201 0008959 302.8215  57.2169 15.42334690 93187
MO-122
1 60209U 24125G   25308.56720509  .00029949  00000-0  67515-3 0  9993
2 60209  97.2573 158.9896 0015208 330.1027  29.9351 15.43082971 74718
GRBBeta
1 60237U 24128C   25309.26611368  .00005748  00000-0  41230-3 0  9994
2 60237  61.9904 280.5949 0057070  88.6703 272.0926 15.04189342 72551
Curium One
1 60242U 24128H   25309.27508219  .00010568  00000-0  67383-3 0  9994
2 60242  61.9799 276.2830 0057083  85.2763 275.4846 15.07855074 72635
ROBUSTA-3A
1 60243U 24128J   25309.26321714  .00010646  00000-0  69015-3 0  9998
2 60243  61.9873 277.7011 0056785  82.8344 277.9201 15.07256462 72618
CatSat
1 60246U 24125J   25309.15185313  .00028675  00000-0  77721-3 0  9993
2 60246  97.2379 157.0225 0034867 284.2547  75.4826 15.36976627 72743
HYPERVIEW-1G (RS66S)
1 61772U 24199AP  25309.32816025  .00038767  00000-0  84984-3 0  9991
2 61772  97.3258 178.3939 0012571  26.8302 333.3594 15.43902078 99834
AO-123
1 61781U 24199AY  25309.29728203  .00011382  00000-0  38230-3 0  9994
2 61781  97.3291 175.1774 0016260  35.4168 324.8150 15.30880362 99614
ZIMSAT 2
1 61783U 24199BA  25309.27526219  .00115804  00000-0  14610-2 0  9996
2 61783  97.3179 180.7901 0010144  25.7568 334.4192 15.59137560103149
HADES-R (SO-124)
1 62690U 25009CK  25309.18932306  .00101819  00000-0  20080-2 0  9992
2 62690  97.3958  30.7161 0003023 263.9628  96.1277 15.46814065 44952
HYDRA-T
1 62692U 25009CM  25309.19741890  .00108407  00000-0  20754-2 0  9999
2 62692  97.3958  30.8572 0003093 257.0392 103.0513 15.47649914 44962
JINJUSat 1B
1 63210U 25052A   25309.20810591  .00016949  00000-0  68216-3 0  9996
2 63210  97.4212 201.6425 0004856 130.3570 229.8092 15.24942017 35860
NUSHSAT 1
1 63211U 25052B   25309.22596594  .00018721  00000-0  73557-3 0  9997
2 63211  97.4199 201.7373 0004705 132.9550 227.2083 15.25726397 35872
TEVEL2-4
1 63213U 25052D   25309.21190262  .00018276  00000-0  73013-3 0  9992
2 63213  97.4122 201.3500 0003392 137.5307 222.6194 15.25179956 35864
TEVEL2-5
1 63214U 25052E   25309.21577338  .00018005  00000-0  72054-3 0  9990
2 63214  97.4119 201.3457 0003352 139.1962 220.9527 15.25126139 35869
TEVEL2-6
1 63215U 25052F   25309.15629570  .00018255  00000-0  73155-3 0  9990
2 63215  97.4125 201.2766 0003390 139.1800 220.9692 15.25076776 35855
TEVEL2-1
1 63217U 25052H   25308.66639576  .00017427  00000-0  70512-3 0  9998
2 63217  97.4097 200.6333 0002791 154.4076 205.7300 15.24764095 35772
TEVEL2-3
1 63218U 25052J   25309.25667863  .00018584  00000-0  75075-3 0  9999
2 63218  97.4099 201.2211 0002828 154.0686 206.0694 15.24803493 35867
TEVEL2-2
1 63219U 25052K   25309.25780843  .00018321  00000-0  74055-3 0  9990
2 63219  97.4096 201.2185 0002848 153.7165 206.4218 15.24787488 35866
TEVEL2-9
1 63237U 25052AD  25308.65973461  .00017132  00000-0  72232-3 0  9997
2 63237  97.4164 200.3838 0005767 201.1864 158.9135 15.23368302 35749
TEVEL2-7
1 63238U 25052AE  25308.67023605  .00016223  00000-0  68669-3 0  9995
2 63238  97.4163 200.3762 0005845 201.5320 158.5672 15.23245327 35746
TEVEL2-8
1 63239U 25052AF  25309.26643076  .00016774  00000-0  71002-3 0  9998
2 63239  97.4159 200.9515 0005912 199.5254 160.5758 15.23238789 35833
HYDRA-W
1 63490U 25052BL  25308.64367683  .00050587  00000-0  14819-2 0  9997
2 63490  97.4089 202.0608 0007085 184.2558 175.8626 15.35026544 35864
HADES-ICM (SO-125)
1 63492U 25052BN  25309.18589941  .00054927  00000-0  16723-2 0  9990
2 63492  97.4106 202.4252 0007208 189.6250 170.4856 15.33782392 35932
Dragonfly
1 65729U 98067XH  25309.20984679  .00098389  00000-0  11678-2 0  9995
2 65729  51.6310 326.1839 0003888  80.0832 280.0600 15.60384423  7286
RSP-03
1 65732U 98067XL  25309.22486807  .00080871  00000-0  10051-2 0  9992
2 65732  51.6304 326.2841 0005986  58.9561 301.2018 15.59251997  7298
GHS-01
1 65733U 98067XM  25308.30363461  .00104594  00000-0  12127-2 0  9996
2 65733  51.6324 330.6344 0004187  71.8718 288.2732 15.60965600  7155
BOTAN
1 65942U 98067XP  25308.30992354  .00070090  00000-0  10417-2 0  9990
2 65942  51.6322 332.1719 0004782  18.8156 341.3011 15.54512341  3875
